JBU1408 LFPG-KJFK

Flight info

Callsign JBU1408
Flight time N/A
Altitude 32000
Route ELCOB UT300 SENLO UN502 JSY DCT LIZAD DCT ARKIL DCT AMDEP DCT TOBOR/M077F320 NATF MUSAK/N0450F320 N296B TUSKY DCT PLYMM PARCH4
Aircraft A21N/M-SDE2E3FGHIRWXY/LB1

Departure

Time 2026-05-07 14:11
Airport Charles de Gaulle International Airport (LFPG)

Arrival

Time N/A
Airport John F. Kennedy International Airport (KJFK)
Time Latitude Longitude Altitude Speed Heading
2026-05-07 13:42 49.00653 2.57305 363 ft 0 kts 99°
2026-05-07 14:00 49.00654 2.57291 357 ft 4 kts 94°
2026-05-07 14:00 49.00651 2.57253 365 ft 4 kts 52°
2026-05-07 14:00 49.00631 2.57236 360 ft 3 kts 359°
2026-05-07 14:00 49.00624 2.57236 359 ft 0 kts 357°
2026-05-07 14:02 49.00653 2.57234 361 ft 10 kts 357°
2026-05-07 14:03 49.00732 2.57234 357 ft 17 kts 10°
2026-05-07 14:03 49.00789 2.57364 363 ft 14 kts 88°
2026-05-07 14:03 49.00803 2.57505 357 ft 16 kts 82°
2026-05-07 14:03 49.00800 2.57734 357 ft 22 kts 84°
2026-05-07 14:04 49.00808 2.57963 364 ft 21 kts 84°
2026-05-07 14:04 49.00821 2.58175 357 ft 20 kts 85°
2026-05-07 14:04 49.00834 2.58374 357 ft 18 kts 84°
2026-05-07 14:04 49.00844 2.58561 360 ft 17 kts 86°
2026-05-07 14:05 49.00850 2.58735 364 ft 16 kts 86°
2026-05-07 14:05 49.00863 2.58938 361 ft 24 kts 84°
2026-05-07 14:05 49.00878 2.59187 363 ft 23 kts 86°
2026-05-07 14:05 49.00889 2.59420 360 ft 21 kts 86°
2026-05-07 14:06 49.00822 2.59548 357 ft 17 kts 176°
2026-05-07 14:06 49.00709 2.59560 357 ft 16 kts 176°
2026-05-07 14:06 49.00603 2.59572 363 ft 15 kts 176°
2026-05-07 14:06 49.00467 2.59595 360 ft 28 kts 174°
2026-05-07 14:07 49.00279 2.59615 364 ft 26 kts 175°
2026-05-07 14:07 49.00107 2.59650 364 ft 24 kts 149°
2026-05-07 14:07 49.00092 2.59854 363 ft 20 kts 85°
2026-05-07 14:07 49.00103 2.60054 364 ft 18 kts 85°
2026-05-07 14:08 49.00114 2.60241 357 ft 17 kts 85°
2026-05-07 14:08 49.00124 2.60416 357 ft 16 kts 85°
2026-05-07 14:08 49.00133 2.60602 363 ft 18 kts 85°
2026-05-07 14:08 49.00143 2.60790 360 ft 17 kts 85°
2026-05-07 14:09 49.00130 2.60957 363 ft 15 kts 126°
2026-05-07 14:09 49.00042 2.61018 360 ft 14 kts 174°
2026-05-07 14:09 48.99995 2.61024 364 ft 0 kts 176°
2026-05-07 14:09 48.99979 2.61025 361 ft 12 kts 176°
2026-05-07 14:10 48.99892 2.60966 361 ft 13 kts 230°
2026-05-07 14:10 48.99868 2.60862 358 ft 0 kts 265°
2026-05-07 14:10 48.99863 2.60767 357 ft 34 kts 265°
2026-05-07 14:10 48.99829 2.60086 364 ft 94 kts 266°
2026-05-07 14:11 48.99755 2.58775 359 ft 154 kts 265°
2026-05-07 14:11 48.99644 2.56962 567 ft 177 kts 264°
2026-05-07 14:11 48.99480 2.55119 1170 ft 174 kts 262°
2026-05-07 14:11 48.99266 2.53327 1801 ft 170 kts 258°
2026-05-07 14:12 48.98975 2.51592 2394 ft 168 kts 253°
2026-05-07 14:12 48.98574 2.49939 2936 ft 165 kts 246°
2026-05-07 14:12 48.98035 2.48394 3419 ft 168 kts 246°
2026-05-07 14:12 48.97957 2.46512 3230 ft 202 kts 290°
2026-05-07 14:13 48.98577 2.44469 3453 ft 214 kts 294°
2026-05-07 14:13 48.98874 2.42152 3653 ft 234 kts 270°
2026-05-07 14:13 48.98785 2.39583 3933 ft 253 kts 265°
2026-05-07 14:13 48.98615 2.36865 4472 ft 261 kts 264°
2026-05-07 14:14 48.98440 2.34095 5171 ft 264 kts 265°
2026-05-07 14:14 48.98271 2.31303 5815 ft 266 kts 265°
2026-05-07 14:14 48.98105 2.28473 6476 ft 270 kts 265°
2026-05-07 14:14 48.97941 2.25617 7107 ft 272 kts 265°
2026-05-07 14:15 48.97778 2.22772 7739 ft 275 kts 265°
2026-05-07 14:15 48.97610 2.19828 8402 ft 277 kts 264°
2026-05-07 14:15 48.97442 2.16894 9063 ft 280 kts 264°
2026-05-07 14:15 48.97275 2.13960 9690 ft 283 kts 264°
2026-05-07 14:16 48.97102 2.10959 10297 ft 286 kts 264°
2026-05-07 14:16 48.96927 2.07929 10906 ft 288 kts 264°
2026-05-07 14:16 48.96746 2.04887 11538 ft 289 kts 262°
2026-05-07 14:16 48.96141 2.01989 12121 ft 290 kts 237°
2026-05-07 14:17 48.94751 1.99777 12708 ft 293 kts 212°
2026-05-07 14:17 48.92857 1.98622 13297 ft 297 kts 190°
2026-05-07 14:17 48.90787 1.98688 13864 ft 304 kts 166°
2026-05-07 14:17 48.88910 2.00211 14253 ft 316 kts 139°
2026-05-07 14:18 48.87259 2.02515 14481 ft 329 kts 146°
2026-05-07 14:18 48.85158 2.03942 14673 ft 337 kts 173°
2026-05-07 14:18 48.82804 2.03801 14878 ft 345 kts 198°
2026-05-07 14:18 48.80659 2.02121 15086 ft 355 kts 222°
2026-05-07 14:19 48.79120 1.99181 15372 ft 362 kts 245°
2026-05-07 14:19 48.78477 1.95487 15811 ft 367 kts 268°
2026-05-07 14:19 48.78779 1.91641 16332 ft 371 kts 284°
2026-05-07 14:19 48.79579 1.87908 16875 ft 374 kts 289°
2026-05-07 14:20 48.80494 1.84200 17397 ft 377 kts 289°
2026-05-07 14:20 48.81354 1.80436 17911 ft 379 kts 287°
2026-05-07 14:20 48.82104 1.76593 18403 ft 381 kts 284°
2026-05-07 14:20 48.82753 1.72672 18849 ft 384 kts 282°
2026-05-07 14:21 48.83326 1.68701 19250 ft 387 kts 281°
2026-05-07 14:21 48.83858 1.64684 19678 ft 389 kts 280°
2026-05-07 14:21 48.84365 1.60694 20104 ft 391 kts 279°
2026-05-07 14:21 48.84875 1.56632 20542 ft 394 kts 279°
2026-05-07 14:22 48.85391 1.52534 20970 ft 396 kts 279°
2026-05-07 14:22 48.85914 1.48415 21399 ft 398 kts 279°
2026-05-07 14:22 48.86442 1.44273 21811 ft 401 kts 280°
2026-05-07 14:22 48.86976 1.40111 22212 ft 403 kts 280°
2026-05-07 14:23 48.87513 1.35919 22624 ft 405 kts 279°
2026-05-07 14:23 48.88053 1.31702 23013 ft 408 kts 279°
2026-05-07 14:23 48.88594 1.27465 23355 ft 411 kts 279°
2026-05-07 14:23 48.89138 1.23184 23692 ft 413 kts 279°
2026-05-07 14:24 48.89682 1.18890 23998 ft 415 kts 279°
2026-05-07 14:24 48.90228 1.14567 24296 ft 417 kts 279°
2026-05-07 14:24 48.90775 1.10228 24601 ft 418 kts 279°
2026-05-07 14:24 48.91321 1.05875 24890 ft 420 kts 279°
2026-05-07 14:25 48.91868 1.01499 25175 ft 422 kts 279°
2026-05-07 14:25 48.92408 0.97170 25449 ft 423 kts 279°
2026-05-07 14:25 48.92956 0.92758 25717 ft 425 kts 279°
2026-05-07 14:25 48.93504 0.88331 25990 ft 427 kts 279°
2026-05-07 14:26 48.94052 0.83893 26247 ft 429 kts 279°
2026-05-07 14:26 48.94602 0.79421 26497 ft 430 kts 279°
2026-05-07 14:26 48.95151 0.74943 26751 ft 432 kts 279°
2026-05-07 14:26 48.95701 0.70444 26997 ft 433 kts 279°
2026-05-07 14:27 48.96250 0.65933 27230 ft 435 kts 279°
2026-05-07 14:27 48.96800 0.61405 27474 ft 436 kts 279°
2026-05-07 14:27 48.97349 0.56859 27705 ft 437 kts 279°
2026-05-07 14:27 48.97899 0.52299 27932 ft 439 kts 279°
2026-05-07 14:28 48.98449 0.47724 28223 ft 438 kts 279°
2026-05-07 14:28 48.98995 0.43163 28547 ft 437 kts 278°
2026-05-07 14:28 48.99539 0.38605 28816 ft 437 kts 278°
2026-05-07 14:28 49.00081 0.34044 29088 ft 437 kts 278°
2026-05-07 14:29 49.00620 0.29489 29383 ft 436 kts 278°
2026-05-07 14:29 49.01157 0.24940 29664 ft 436 kts 278°
2026-05-07 14:29 49.01691 0.20401 29927 ft 435 kts 278°
2026-05-07 14:29 49.02222 0.15867 30166 ft 434 kts 278°
2026-05-07 14:30 49.02750 0.11342 30376 ft 434 kts 278°
2026-05-07 14:30 49.03276 0.06821 30588 ft 433 kts 278°
2026-05-07 14:30 49.03799 0.02308 30805 ft 432 kts 278°
2026-05-07 14:30 49.04320 -0.02201 31005 ft 432 kts 278°
2026-05-07 14:31 49.04839 -0.06711 31162 ft 432 kts 278°
2026-05-07 14:31 49.05356 -0.11225 31331 ft 432 kts 278°
2026-05-07 14:31 49.05871 -0.15729 31518 ft 431 kts 278°
2026-05-07 14:31 49.06384 -0.20234 31694 ft 431 kts 278°
2026-05-07 14:32 49.06797 -0.24702 31864 ft 429 kts 272°
2026-05-07 14:32 49.06981 -0.29247 32003 ft 429 kts 271°
2026-05-07 14:32 49.07110 -0.33804 32044 ft 431 kts 270°
2026-05-07 14:33 49.07284 -0.42946 32046 ft 431 kts 270°
2026-05-07 14:33 49.07424 -0.52084 32046 ft 430 kts 270°
2026-05-07 14:34 49.07564 -0.61210 32043 ft 430 kts 270°
2026-05-07 14:34 49.07705 -0.70331 32039 ft 430 kts 270°
2026-05-07 14:35 49.07842 -0.79456 32032 ft 430 kts 270°
2026-05-07 14:35 49.07972 -0.88528 32037 ft 430 kts 270°
2026-05-07 14:36 49.08094 -0.97649 32026 ft 430 kts 269°
2026-05-07 14:36 49.08209 -1.06777 32023 ft 430 kts 269°
2026-05-07 14:37 49.08379 -1.15899 32021 ft 431 kts 274°
2026-05-07 14:37 49.10166 -1.29387 32023 ft 433 kts 282°
2026-05-07 14:38 49.11619 -1.38309 32025 ft 434 kts 282°
2026-05-07 14:38 49.13082 -1.47250 32022 ft 434 kts 282°
2026-05-07 14:39 49.14524 -1.56209 32022 ft 434 kts 282°
2026-05-07 14:39 49.15950 -1.65176 32020 ft 434 kts 282°
2026-05-07 14:40 49.17358 -1.74091 32020 ft 434 kts 281°
2026-05-07 14:40 49.18768 -1.83069 32023 ft 435 kts 281°
2026-05-07 14:41 49.20176 -1.92079 32023 ft 435 kts 281°
2026-05-07 14:41 49.21577 -2.01094 32020 ft 435 kts 281°
2026-05-07 14:42 49.23029 -2.10083 32021 ft 436 kts 282°
2026-05-07 14:42 49.24576 -2.19052 32015 ft 436 kts 282°
2026-05-07 14:43 49.26129 -2.28021 32019 ft 436 kts 282°
2026-05-07 14:43 49.27666 -2.37017 32019 ft 436 kts 282°
2026-05-07 14:44 49.29187 -2.46005 32023 ft 436 kts 282°
2026-05-07 14:44 49.30446 -2.53486 32021 ft 436 kts 282°
2026-05-07 14:45 49.32198 -2.63949 32021 ft 436 kts 282°
2026-05-07 14:45 49.33455 -2.71493 32019 ft 436 kts 282°
2026-05-07 14:46 49.34942 -2.80466 32019 ft 437 kts 282°
2026-05-07 14:46 49.36431 -2.89496 32007 ft 437 kts 281°
2026-05-07 14:47 49.37915 -2.98541 32004 ft 437 kts 281°
2026-05-07 14:47 49.39391 -3.07587 32006 ft 437 kts 281°
2026-05-07 14:48 49.40859 -3.16629 32011 ft 437 kts 281°
2026-05-07 14:48 49.42321 -3.25692 32007 ft 437 kts 281°
2026-05-07 14:49 49.43777 -3.34764 32007 ft 437 kts 281°
2026-05-07 14:49 49.45227 -3.43841 32001 ft 437 kts 281°
2026-05-07 14:50 49.46669 -3.52925 32001 ft 437 kts 281°
2026-05-07 14:50 49.48094 -3.61946 32006 ft 437 kts 281°
2026-05-07 14:51 49.49522 -3.71043 32005 ft 438 kts 281°
2026-05-07 14:51 49.50944 -3.80148 32003 ft 438 kts 281°
2026-05-07 14:52 49.52359 -3.89260 32002 ft 438 kts 281°
2026-05-07 14:52 49.53767 -3.98378 32002 ft 437 kts 281°
2026-05-07 14:53 49.55167 -4.07503 32006 ft 438 kts 280°
2026-05-07 14:53 49.56565 -4.16657 32003 ft 439 kts 280°
2026-05-07 14:54 49.57954 -4.25810 32004 ft 439 kts 280°
2026-05-07 14:54 49.59726 -4.34824 32006 ft 442 kts 290°
2026-05-07 14:55 49.62246 -4.43416 32007 ft 443 kts 292°
2026-05-07 14:55 49.64926 -4.51994 32017 ft 444 kts 293°
2026-05-07 14:56 49.67623 -4.60584 32007 ft 445 kts 293°
2026-05-07 14:56 49.70301 -4.69193 32004 ft 445 kts 292°
2026-05-07 14:57 49.72949 -4.77774 32006 ft 445 kts 292°
2026-05-07 14:57 49.75604 -4.86417 32009 ft 445 kts 292°
2026-05-07 14:58 49.78250 -4.95062 32008 ft 445 kts 292°
2026-05-07 14:58 49.80891 -5.03720 32009 ft 445 kts 292°
2026-05-07 14:59 49.83525 -5.12385 32009 ft 445 kts 292°
2026-05-07 14:59 49.86151 -5.21052 32014 ft 444 kts 292°
2026-05-07 15:00 49.88769 -5.29724 32009 ft 444 kts 292°
2026-05-07 15:00 49.91378 -5.38397 32009 ft 443 kts 292°
2026-05-07 15:01 49.93981 -5.47081 32009 ft 444 kts 292°
2026-05-07 15:01 49.96584 -5.55797 32008 ft 445 kts 292°
2026-05-07 15:02 49.99185 -5.64540 31998 ft 446 kts 292°
2026-05-07 15:02 50.01765 -5.73240 31998 ft 446 kts 292°
2026-05-07 15:03 50.04353 -5.81999 31990 ft 446 kts 291°
2026-05-07 15:03 50.06934 -5.90768 32000 ft 446 kts 291°
2026-05-07 15:04 50.09512 -5.99556 32003 ft 446 kts 291°
2026-05-07 15:04 50.12083 -6.08354 32020 ft 446 kts 291°
2026-05-07 15:05 50.14650 -6.17170 32023 ft 446 kts 291°
2026-05-07 15:05 50.17209 -6.25989 32027 ft 446 kts 291°
2026-05-07 15:06 50.19763 -6.34819 32026 ft 446 kts 291°
2026-05-07 15:06 50.22309 -6.43661 32014 ft 446 kts 291°
2026-05-07 15:07 50.24837 -6.52469 32015 ft 447 kts 291°
2026-05-07 15:07 50.27372 -6.61337 32015 ft 447 kts 291°
2026-05-07 15:08 50.29900 -6.70216 32015 ft 447 kts 291°
2026-05-07 15:08 50.32423 -6.79114 32012 ft 447 kts 291°
2026-05-07 15:09 50.34935 -6.88007 32012 ft 447 kts 291°
2026-05-07 15:09 50.37441 -6.96906 32015 ft 446 kts 291°
2026-05-07 15:10 50.39924 -7.05758 32012 ft 446 kts 290°
2026-05-07 15:10 50.42415 -7.14668 32012 ft 446 kts 290°
2026-05-07 15:11 50.44900 -7.23593 32012 ft 446 kts 290°
2026-05-07 15:11 50.47373 -7.32512 32012 ft 446 kts 290°
2026-05-07 15:12 50.49844 -7.41454 32012 ft 446 kts 290°
2026-05-07 15:12 50.52306 -7.50400 32010 ft 445 kts 290°
2026-05-07 15:13 50.54758 -7.59340 32007 ft 445 kts 290°
2026-05-07 15:13 50.57200 -7.68279 32007 ft 445 kts 290°
2026-05-07 15:14 50.59635 -7.77230 32007 ft 445 kts 290°
2026-05-07 15:14 50.62063 -7.86185 32005 ft 445 kts 290°
2026-05-07 15:15 50.64479 -7.95136 32017 ft 444 kts 290°
2026-05-07 15:15 50.66956 -8.04048 32008 ft 443 kts 292°
2026-05-07 15:16 50.69600 -8.12840 32003 ft 443 kts 293°
2026-05-07 15:16 50.72251 -8.21554 32005 ft 443 kts 293°
2026-05-07 15:17 50.74896 -8.30342 32005 ft 443 kts 293°
2026-05-07 15:17 50.77523 -8.39151 32005 ft 443 kts 292°
2026-05-07 15:18 50.80138 -8.47970 32003 ft 443 kts 293°
2026-05-07 15:18 50.82737 -8.56768 31998 ft 441 kts 293°
2026-05-07 15:19 50.85324 -8.65553 31999 ft 440 kts 293°
2026-05-07 15:19 50.87906 -8.74349 31999 ft 440 kts 293°
2026-05-07 15:20 50.90479 -8.83151 31999 ft 440 kts 293°
2026-05-07 15:20 50.93048 -8.91969 31999 ft 440 kts 293°
2026-05-07 15:21 50.95606 -9.00788 32002 ft 440 kts 293°
2026-05-07 15:21 50.98145 -9.09567 32000 ft 436 kts 293°
2026-05-07 15:22 51.00663 -9.18306 31993 ft 435 kts 293°
2026-05-07 15:22 51.03155 -9.26986 31993 ft 435 kts 293°
2026-05-07 15:23 51.05658 -9.35740 31993 ft 435 kts 293°
2026-05-07 15:23 51.08151 -9.44492 31993 ft 434 kts 293°
2026-05-07 15:24 51.10638 -9.53253 31994 ft 434 kts 294°
2026-05-07 15:24 51.13111 -9.61998 31993 ft 432 kts 294°
2026-05-07 15:25 51.15571 -9.70727 31990 ft 431 kts 294°
2026-05-07 15:25 51.18010 -9.79414 31991 ft 431 kts 293°
2026-05-07 15:26 51.20467 -9.88200 31988 ft 431 kts 293°
2026-05-07 15:26 51.22888 -9.96889 31985 ft 431 kts 293°
2026-05-07 15:27 51.25318 -10.05641 31985 ft 431 kts 293°
2026-05-07 15:27 51.27743 -10.14407 31982 ft 431 kts 293°
2026-05-07 15:28 51.30155 -10.23164 31982 ft 431 kts 293°
2026-05-07 15:28 51.32564 -10.31940 31982 ft 431 kts 293°
2026-05-07 15:29 51.34966 -10.40721 31983 ft 431 kts 292°
2026-05-07 15:29 51.37358 -10.49502 31977 ft 430 kts 292°
2026-05-07 15:30 51.39744 -10.58294 31980 ft 430 kts 292°
2026-05-07 15:30 51.42100 -10.67006 31976 ft 428 kts 292°
2026-05-07 15:31 51.44456 -10.75752 31974 ft 427 kts 292°
2026-05-07 15:31 51.46808 -10.84515 31974 ft 427 kts 292°
2026-05-07 15:32 51.48756 -10.91795 31974 ft 427 kts 292°
2026-05-07 15:32 51.51093 -11.00564 31971 ft 427 kts 292°
2026-05-07 15:33 51.53422 -11.09340 31973 ft 427 kts 291°
2026-05-07 15:33 51.55745 -11.18122 31970 ft 425 kts 291°
2026-05-07 15:34 51.58060 -11.26853 31965 ft 424 kts 291°
2026-05-07 15:34 51.60386 -11.35565 31966 ft 424 kts 291°
2026-05-07 15:35 51.62711 -11.44293 31966 ft 424 kts 291°
2026-05-07 15:35 51.65014 -11.52972 31963 ft 424 kts 291°
2026-05-07 15:36 51.67322 -11.61715 31963 ft 424 kts 291°
2026-05-07 15:36 51.69623 -11.70464 31967 ft 424 kts 291°
2026-05-07 15:37 51.71911 -11.79195 31963 ft 422 kts 290°
2026-05-07 15:37 51.74191 -11.87932 31963 ft 422 kts 290°
2026-05-07 15:38 51.76462 -11.96669 31963 ft 422 kts 290°
2026-05-07 15:38 51.78728 -12.05419 31963 ft 422 kts 290°
2026-05-07 15:39 51.80987 -12.14173 31963 ft 422 kts 290°
2026-05-07 15:39 51.83238 -12.22935 31963 ft 422 kts 290°
2026-05-07 15:40 51.85480 -12.31690 31958 ft 420 kts 289°
2026-05-07 15:40 51.87694 -12.40369 31968 ft 420 kts 289°
2026-05-07 15:41 51.89912 -12.49107 31961 ft 420 kts 289°
2026-05-07 15:41 51.92127 -12.57864 31959 ft 420 kts 289°
2026-05-07 15:42 51.94336 -12.66630 31964 ft 420 kts 289°
2026-05-07 15:42 51.96540 -12.75409 31962 ft 420 kts 289°
2026-05-07 15:43 51.98737 -12.84193 31965 ft 419 kts 288°
2026-05-07 15:43 52.00921 -12.92961 31960 ft 419 kts 288°
2026-05-07 15:44 52.03095 -13.01727 31963 ft 418 kts 288°
2026-05-07 15:44 52.05262 -13.10498 31962 ft 419 kts 288°
2026-05-07 15:45 52.07430 -13.19310 31966 ft 420 kts 288°
2026-05-07 15:45 52.09592 -13.28130 31956 ft 420 kts 288°
2026-05-07 15:46 52.12810 -13.41323 31972 ft 419 kts 287°
2026-05-07 15:47 52.14953 -13.50151 31964 ft 419 kts 287°
2026-05-07 15:47 52.17089 -13.58990 31966 ft 419 kts 287°
2026-05-07 15:48 52.19219 -13.67840 31965 ft 419 kts 287°
2026-05-07 15:48 52.21341 -13.76691 31982 ft 419 kts 287°
2026-05-07 15:49 52.23460 -13.85570 31971 ft 420 kts 287°
2026-05-07 15:49 52.25576 -13.94471 31970 ft 420 kts 287°
2026-05-07 15:50 52.27674 -14.03327 31971 ft 420 kts 287°
2026-05-07 15:50 52.29771 -14.12218 31971 ft 419 kts 287°
2026-05-07 15:51 52.31860 -14.21113 31977 ft 419 kts 287°
2026-05-07 15:51 52.33942 -14.30017 31977 ft 419 kts 286°
2026-05-07 15:52 52.36017 -14.38925 31978 ft 419 kts 286°
2026-05-07 15:52 52.38085 -14.47842 31982 ft 419 kts 286°
2026-05-07 15:53 52.40149 -14.56780 31980 ft 419 kts 286°
2026-05-07 15:53 52.42204 -14.65713 31989 ft 419 kts 286°
2026-05-07 15:54 52.44248 -14.74638 31974 ft 419 kts 286°
2026-05-07 15:54 52.46286 -14.83577 31973 ft 418 kts 286°
2026-05-07 15:55 52.48319 -14.92525 31972 ft 418 kts 286°
2026-05-07 15:55 52.49851 -15.01585 31972 ft 411 kts 273°
2026-05-07 15:56 52.50278 -15.10912 31971 ft 410 kts 269°
2026-05-07 15:56 52.50467 -15.20256 31983 ft 409 kts 268°
2026-05-07 15:57 52.50611 -15.29595 31982 ft 409 kts 268°
2026-05-07 15:57 52.50765 -15.38924 31986 ft 409 kts 269°
2026-05-07 15:58 52.50925 -15.48257 31984 ft 409 kts 269°
2026-05-07 15:58 52.51080 -15.57536 31989 ft 409 kts 268°
2026-05-07 15:59 52.51229 -15.66869 31986 ft 409 kts 268°
2026-05-07 15:59 52.51370 -15.76206 31991 ft 409 kts 268°
2026-05-07 16:00 52.51502 -15.85525 31989 ft 409 kts 268°
2026-05-07 16:00 52.51626 -15.94853 31992 ft 408 kts 268°
2026-05-07 16:01 52.51744 -16.04178 31989 ft 408 kts 268°
2026-05-07 16:01 52.51855 -16.13505 31993 ft 408 kts 268°
2026-05-07 16:02 52.51958 -16.22827 31994 ft 408 kts 268°
2026-05-07 16:02 52.52054 -16.32129 31994 ft 408 kts 268°
2026-05-07 16:03 52.52143 -16.41436 31993 ft 407 kts 268°
2026-05-07 16:03 52.52225 -16.50744 31992 ft 407 kts 268°
2026-05-07 16:04 52.52299 -16.60044 31998 ft 407 kts 268°
2026-05-07 16:04 52.52365 -16.69284 32001 ft 407 kts 268°
2026-05-07 16:05 52.52425 -16.78577 32000 ft 407 kts 268°
2026-05-07 16:05 52.52477 -16.87857 32002 ft 406 kts 268°
2026-05-07 16:06 52.52522 -16.97139 32004 ft 406 kts 268°
2026-05-07 16:06 52.52560 -17.06409 32001 ft 405 kts 268°
2026-05-07 16:07 52.52590 -17.15661 31999 ft 405 kts 268°
2026-05-07 16:07 52.52613 -17.24859 32003 ft 405 kts 268°
2026-05-07 16:08 52.52629 -17.34111 32006 ft 404 kts 268°
2026-05-07 16:08 52.52638 -17.43351 32007 ft 404 kts 268°
2026-05-07 16:09 52.52639 -17.52587 32007 ft 404 kts 268°
2026-05-07 16:09 52.52634 -17.61818 32013 ft 404 kts 268°
2026-05-07 16:10 52.52621 -17.71059 32009 ft 404 kts 268°
2026-05-07 16:10 52.52601 -17.80243 32011 ft 404 kts 268°
2026-05-07 16:11 52.52574 -17.89473 32009 ft 404 kts 268°
2026-05-07 16:11 52.52540 -17.98705 32019 ft 404 kts 268°
2026-05-07 16:12 52.52498 -18.07918 32014 ft 404 kts 267°
2026-05-07 16:12 52.52450 -18.17145 32014 ft 404 kts 267°
2026-05-07 16:13 52.52394 -18.26368 32025 ft 404 kts 267°
2026-05-07 16:13 52.52331 -18.35534 32020 ft 404 kts 267°
2026-05-07 16:14 52.52261 -18.44773 32019 ft 404 kts 267°
2026-05-07 16:14 52.52184 -18.53997 32019 ft 404 kts 267°
2026-05-07 16:15 52.52100 -18.63220 32030 ft 404 kts 267°
2026-05-07 16:15 52.52007 -18.72473 32024 ft 406 kts 267°
2026-05-07 16:16 52.51908 -18.81754 32023 ft 407 kts 267°
2026-05-07 16:16 52.51802 -18.91053 32028 ft 407 kts 267°
2026-05-07 16:17 52.51688 -19.00352 32032 ft 407 kts 267°
2026-05-07 16:17 52.51567 -19.09619 32031 ft 407 kts 267°
2026-05-07 16:18 52.51438 -19.18941 32032 ft 407 kts 267°
2026-05-07 16:18 52.51302 -19.28170 32032 ft 407 kts 266°
2026-05-07 16:19 52.51159 -19.37454 32032 ft 407 kts 266°
2026-05-07 16:19 52.51009 -19.46758 32030 ft 407 kts 266°
2026-05-07 16:20 52.50851 -19.56061 32034 ft 407 kts 266°
2026-05-07 16:20 52.50713 -19.63846 32040 ft 407 kts 266°
2026-05-07 16:21 52.50544 -19.72997 32043 ft 407 kts 266°
2026-05-07 16:21 52.50366 -19.82291 32037 ft 407 kts 266°
2026-05-07 16:22 52.50180 -19.91590 32043 ft 408 kts 266°
2026-05-07 16:22 52.49966 -20.00873 32042 ft 408 kts 265°
2026-05-07 16:23 52.49505 -20.10146 32040 ft 407 kts 263°
2026-05-07 16:23 52.48939 -20.19398 32042 ft 407 kts 263°
2026-05-07 16:24 52.48373 -20.28653 32045 ft 407 kts 263°
2026-05-07 16:24 52.47818 -20.37906 32049 ft 408 kts 263°
2026-05-07 16:25 52.47265 -20.47182 32050 ft 409 kts 263°
2026-05-07 16:25 52.46706 -20.56457 32051 ft 409 kts 263°
2026-05-07 16:26 52.46138 -20.65736 32049 ft 409 kts 263°
2026-05-07 16:26 52.45562 -20.75002 32050 ft 409 kts 263°
2026-05-07 16:27 52.44982 -20.84209 32052 ft 409 kts 263°
2026-05-07 16:27 52.44392 -20.93476 32054 ft 409 kts 263°
2026-05-07 16:28 52.43796 -21.02736 32054 ft 409 kts 263°
2026-05-07 16:28 52.43191 -21.11999 32053 ft 409 kts 263°
2026-05-07 16:29 52.42580 -21.21252 32059 ft 409 kts 263°
2026-05-07 16:29 52.41960 -21.30515 32059 ft 409 kts 263°
2026-05-07 16:30 52.41349 -21.39543 32060 ft 410 kts 263°
2026-05-07 16:30 52.40863 -21.46647 32062 ft 411 kts 263°
2026-05-07 16:31 52.40312 -21.54641 32065 ft 411 kts 263°
2026-05-07 16:31 52.39679 -21.63715 32064 ft 411 kts 263°
2026-05-07 16:32 52.39028 -21.72957 32066 ft 411 kts 263°
2026-05-07 16:32 52.38364 -21.82255 32061 ft 411 kts 263°
2026-05-07 16:33 52.37692 -21.91559 32059 ft 413 kts 263°
2026-05-07 16:33 52.37011 -22.00893 32067 ft 413 kts 263°
2026-05-07 16:34 52.36323 -22.10234 32073 ft 413 kts 263°
2026-05-07 16:34 52.35626 -22.19586 32075 ft 413 kts 263°
2026-05-07 16:35 52.34922 -22.28924 32075 ft 413 kts 263°
2026-05-07 16:35 52.34220 -22.38120 32073 ft 414 kts 263°
2026-05-07 16:36 52.33496 -22.47524 32098 ft 416 kts 264°
2026-05-07 16:36 52.32783 -22.56687 32078 ft 419 kts 264°
2026-05-07 16:37 52.32040 -22.66148 32079 ft 419 kts 264°
2026-05-07 16:37 52.31289 -22.75595 32081 ft 419 kts 264°
2026-05-07 16:38 52.30530 -22.85043 32067 ft 419 kts 264°
2026-05-07 16:38 52.29767 -22.94460 32086 ft 421 kts 264°
2026-05-07 16:39 52.28989 -23.03956 32087 ft 422 kts 264°
2026-05-07 16:39 52.28459 -23.10374 32089 ft 422 kts 264°
2026-05-07 16:40 52.27667 -23.19872 32093 ft 422 kts 264°
2026-05-07 16:40 52.26887 -23.29145 32092 ft 422 kts 264°
2026-05-07 16:41 52.26084 -23.38590 32091 ft 422 kts 264°
2026-05-07 16:41 52.25268 -23.48097 32099 ft 423 kts 264°
2026-05-07 16:42 52.24444 -23.57617 32095 ft 424 kts 264°
2026-05-07 16:42 52.23611 -23.67141 32096 ft 424 kts 264°
2026-05-07 16:43 52.22771 -23.76656 32101 ft 424 kts 264°
2026-05-07 16:43 52.21923 -23.86166 32085 ft 424 kts 265°
2026-05-07 16:44 52.21071 -23.95634 32106 ft 425 kts 265°
2026-05-07 16:44 52.20206 -24.05166 32108 ft 425 kts 265°
2026-05-07 16:45 52.19330 -24.14715 32113 ft 425 kts 265°
2026-05-07 16:45 52.18448 -24.24252 32113 ft 425 kts 265°
2026-05-07 16:46 52.18003 -24.29024 32113 ft 425 kts 265°
2026-05-07 16:46 52.17913 -24.29994 32113 ft 425 kts 265°
2026-05-07 16:47 52.17652 -24.32778 32113 ft 425 kts 265°
2026-05-07 16:47 52.16874 -24.41047 32109 ft 426 kts 265°
2026-05-07 16:48 52.15971 -24.50568 32106 ft 426 kts 265°
2026-05-07 16:48 52.15207 -24.58559 32129 ft 426 kts 266°
2026-05-07 16:49 52.14292 -24.68050 32123 ft 426 kts 266°
2026-05-07 16:49 52.13400 -24.77233 32125 ft 426 kts 265°
2026-05-07 16:50 52.12464 -24.86767 32116 ft 426 kts 267°
2026-05-07 16:50 52.11783 -24.93655 32128 ft 425 kts 267°
2026-05-07 16:51 52.10844 -25.03104 32125 ft 425 kts 267°
2026-05-07 16:51 52.10153 -25.10020 32128 ft 425 kts 266°
2026-05-07 16:52 52.09185 -25.19612 32131 ft 425 kts 266°
2026-05-07 16:52 52.08220 -25.29093 32131 ft 425 kts 266°
2026-05-07 16:53 52.07245 -25.38572 32128 ft 425 kts 268°
2026-05-07 16:53 52.06827 -25.42622 32137 ft 424 kts 268°
2026-05-07 16:54 52.06217 -25.48495 32140 ft 424 kts 268°
2026-05-07 16:54 52.05431 -25.56029 32140 ft 424 kts 268°
2026-05-07 16:55 52.04423 -25.65616 32140 ft 424 kts 268°
2026-05-07 16:55 52.03423 -25.75063 32143 ft 424 kts 268°
2026-05-07 16:56 52.02415 -25.84497 32141 ft 424 kts 268°
2026-05-07 16:56 52.00887 -25.98668 32146 ft 425 kts 268°
2026-05-07 16:57 51.99860 -26.08097 32148 ft 425 kts 267°
2026-05-07 16:57 51.99313 -26.13090 32151 ft 425 kts 267°
2026-05-07 16:58 51.98441 -26.21014 32151 ft 425 kts 267°
2026-05-07 16:58 51.97456 -26.29890 32156 ft 425 kts 267°
2026-05-07 16:59 51.96724 -26.36435 32155 ft 423 kts 269°
2026-05-07 16:59 51.95944 -26.43361 32157 ft 421 kts 269°
2026-05-07 17:00 51.94882 -26.52772 32168 ft 420 kts 269°
2026-05-07 17:00 51.93831 -26.62026 32168 ft 420 kts 269°
2026-05-07 17:01 51.92758 -26.71395 32160 ft 420 kts 269°
2026-05-07 17:01 51.91692 -26.80630 32100 ft 420 kts 270°
2026-05-07 17:02 51.90615 -26.89882 32162 ft 416 kts 271°
2026-05-07 17:02 51.89535 -26.99077 32163 ft 415 kts 271°
2026-05-07 17:03 51.88453 -27.08265 32170 ft 415 kts 271°
2026-05-07 17:03 51.87363 -27.17450 32171 ft 415 kts 271°
2026-05-07 17:04 51.86266 -27.26629 32171 ft 415 kts 270°
2026-05-07 17:04 51.85159 -27.35804 32175 ft 415 kts 271°
2026-05-07 17:05 51.84049 -27.44950 32176 ft 414 kts 271°
2026-05-07 17:05 51.82943 -27.54022 32181 ft 414 kts 271°
2026-05-07 17:06 51.81821 -27.63155 32181 ft 414 kts 271°
2026-05-07 17:06 51.80691 -27.72286 32184 ft 414 kts 271°
2026-05-07 17:07 51.79551 -27.81428 32178 ft 415 kts 271°
2026-05-07 17:07 51.78404 -27.90583 32198 ft 416 kts 271°
2026-05-07 17:08 51.77441 -27.98204 32187 ft 417 kts 271°
2026-05-07 17:08 51.76276 -28.07368 32190 ft 417 kts 271°
2026-05-07 17:09 51.75104 -28.16526 32192 ft 417 kts 271°
2026-05-07 17:09 51.73923 -28.25700 32141 ft 417 kts 271°
2026-05-07 17:10 51.72737 -28.34869 32194 ft 418 kts 270°
2026-05-07 17:10 51.71538 -28.44063 32196 ft 419 kts 270°
2026-05-07 17:11 51.70331 -28.53250 32199 ft 419 kts 270°
2026-05-07 17:11 51.69125 -28.62377 32199 ft 419 kts 270°
2026-05-07 17:12 51.67903 -28.71564 32205 ft 419 kts 270°
2026-05-07 17:12 51.66677 -28.80721 32202 ft 418 kts 270°
2026-05-07 17:13 51.65444 -28.89889 32208 ft 419 kts 270°
2026-05-07 17:13 51.64203 -28.99047 32207 ft 419 kts 270°
2026-05-07 17:14 51.62954 -29.08205 32214 ft 419 kts 270°
2026-05-07 17:14 51.61698 -29.17358 32212 ft 419 kts 270°
2026-05-07 17:15 51.60436 -29.26506 32214 ft 419 kts 269°
2026-05-07 17:15 51.59164 -29.35659 32217 ft 419 kts 269°
2026-05-07 17:16 51.57886 -29.44801 32219 ft 419 kts 269°
2026-05-07 17:16 51.56600 -29.53945 32225 ft 419 kts 269°
2026-05-07 17:17 51.55308 -29.63073 32225 ft 419 kts 269°
2026-05-07 17:17 51.54008 -29.72213 32214 ft 420 kts 269°
2026-05-07 17:18 51.52699 -29.81357 32228 ft 420 kts 269°
2026-05-07 17:18 51.51383 -29.90499 32228 ft 420 kts 269°
2026-05-07 17:19 51.50075 -29.99582 32230 ft 419 kts 270°
2026-05-07 17:19 51.49012 -30.08724 32230 ft 415 kts 272°